This is the latest recevied weather packets stored in our database for station/object LZ1HCO-25. If no packets are shown the sender has not sent any weather packets the latest 10 day(s).
| Time | Temp. | Humidity | Pressure | Rain* | Wind** | Luminosity | Snow |
|---|---|---|---|---|---|---|---|
| 1777483857 | 13.33° C | 99% | 971 hPa | - | - | 0 W/m² | - |
| 1777483545 | 13.33° C | 99% | 971 hPa | - | - | 0 W/m² | - |
| 1777483234 | 13.89° C | 99% | 971 hPa | - | - | 0 W/m² | - |
| 1777482922 | 13.89° C | 99% | 971 hPa | - | - | 0 W/m² | - |
| 1777482611 | 13.33° C | 99% | 971 hPa | - | - | 0 W/m² | - |
| 1777482300 | 14.44° C | 99% | 971 hPa | - | - | 0 W/m² | - |
| 1777481988 | 13.89° C | 99% | 971 hPa | - | - | 0 W/m² | - |
| 1777481677 | 13.89° C | 99% | 971 hPa | - | - | 0 W/m² | - |
| 1777481366 | 14.44° C | 99% | 971 hPa | - | - | 0 W/m² | - |
| 1777481054 | 14.44° C | 99% | 971 hPa | - | - | 0 W/m² | - |
| 1777480743 | 14.44° C | 96% | 971 hPa | - | - | 0 W/m² | - |
| 1777480432 | 14.44° C | 93% | 971 hPa | - | - | 0 W/m² | - |
| 1777480120 | 14.44° C | 94% | 971 hPa | - | - | 0 W/m² | - |
| 1777479809 | 14.44° C | 95% | 971 hPa | - | - | 0 W/m² | - |
| 1777479498 | 15° C | 82% | 971 hPa | - | - | 0 W/m² | - |
| 1777479186 | 15° C | 82% | 971 hPa | - | - | 0 W/m² | - |
| 1777478875 | 15° C | 83% | 971 hPa | - | - | 0 W/m² | - |
| 1777478563 | 14.44° C | 81% | 971 hPa | - | - | 0 W/m² | - |
| 1777478252 | 15.56° C | 77% | 971 hPa | - | - | 0 W/m² | - |
| 1777477941 | 15.56° C | 78% | 971 hPa | - | - | 0 W/m² | - |
| 1777477629 | 15° C | 78% | 971 hPa | - | - | 0 W/m² | - |
| 1777477318 | 15.56° C | 77% | 971 hPa | - | - | 0 W/m² | - |
| 1777477007 | 15.56° C | 77% | 971 hPa | - | - | 0 W/m² | - |
| 1777476695 | 15.56° C | 77% | 971 hPa | - | - | 0 W/m² | - |
| 1777476384 | 16.11° C | 75% | 971 hPa | - | - | 0 W/m² | - |
* Rain since midnight (hover to see other rain measurements)
** Current wind speed in m/s (hover to see current wind gust speed)